OH6NMY Weather Reports


time (UTC)temp
C
wind
direction
speed
KPH
gust
KPH
rain 1hr
cm
rain 24hr
cm
rain mn
cm
humidity
%
barometer
mb
20260506070223 6 281 16.1 25.7 0.00 0.00 0.00 58 1009.4
20260506061723 5 271 17.7 22.5 0.00 0.00 0.00 62 1009.1
20260506061035 5 256 16.1 22.5 0.00 0.00 0.00 63 1008.9
20260506050524 3 292 12.9 17.7 0.00 0.00 0.00 69 1008.5
20260506044724 3 251 12.9 17.7 0.00 0.00 0.00 72 1008.5
20260506043824 3 273 11.3 14.5 0.00 0.00 0.00 72 1008.3
20260506042923 2 265 11.3 17.7 0.00 0.00 0.00 73 1008.2
20260506042024 2 261 9.7 17.7 0.00 0.00 0.00 73 1008.1
20260506041336 2 264 11.3 14.5 0.00 0.00 0.00 74 1008.2
20260506040224 2 267 11.3 17.7 0.00 0.00 0.00 75 1007.9
20260506035324 2 283 9.7 12.9 0.00 0.00 0.00 75 1007.9
20260506034424 2 265 6.4 9.7 0.00 0.00 0.00 75 1007.8
20260506033524 2 261 8.0 14.5 0.00 0.00 0.00 76 1007.7
20260506032624 1 260 9.7 12.9 0.00 0.00 0.00 77 1007.6
20260506031723 1 258 6.4 11.3 0.00 0.00 0.00 78 1007.6
20260506030824 1 265 8.0 11.3 0.00 0.00 0.00 79 1007.5
20260506025924 1 260 6.4 11.3 0.00 0.00 0.00 79 1007.2
20260506025024 1 262 6.4 11.3 0.00 0.00 0.00 79 1007.5
20260506024124 1 266 6.4 11.3 0.00 0.00 0.00 80 1007.3
20260506023224 1 259 6.4 9.7 0.00 0.00 0.00 81 1007.4
20260506022534 1 252 4.8 9.7 0.00 0.00 0.00 81 1007.4
20260506021424 1 255 6.4 12.9 0.00 0.00 0.00 81 1007.1
20260506020524 0 259 4.8 11.3 0.00 0.00 0.00 81 1007.0
20260506015624 1 260 6.4 6.4 0.00 0.00 0.00 81 1007.1
20260506014724 1 258 6.4 9.7 0.00 0.00 0.00 81 1006.8
20260506013824 1 257 6.4 9.7 0.00 0.00 0.00 81 1007.0
20260506012924 1 258 6.4 9.7 0.00 0.00 0.00 81 1006.8
20260506012236 1 257 6.4 9.7 0.00 0.00 0.00 81 1006.8
20260506011124 1 263 6.4 9.7 0.00 0.00 0.00 79 1006.6
20260506010224 1 257 6.4 12.9 0.00 0.00 0.00 79 1006.4
20260506005324 1 260 4.8 12.9 0.00 0.00 0.00 79 1006.5
20260506004424 1 265 4.8 6.4 0.00 0.00 0.00 78 1006.4
20260506003523 1 254 3.2 6.4 0.00 0.00 0.00 78 1006.3
20260506002624 1 243 1.6 6.4 0.00 0.00 0.00 77 1006.3
20260506001724 1 244 1.6 6.4 0.00 0.00 0.00 76 1006.3
20260506000824 1 230 3.2 3.2 0.00 0.00 0.00 73 1006.0
20260505235924 2 240 1.6 6.4 0.00 0.00 0.00 71 1006.1
20260505235023 2 256 4.8 9.7 0.00 0.00 0.00 68 1005.8
20260505234123 2 258 6.4 9.7 0.00 0.00 0.00 67 1005.8
20260505233224 3 286 8.0 12.9 0.00 0.00 0.00 67 1005.9
20260505232324 3 272 8.0 12.9 0.00 0.00 0.00 67 1005.7
20260505231424 2 257 4.8 9.7 0.00 0.00 0.00 69 1005.6
20260505230736 2 265 6.4 9.7 0.00 0.00 0.00 71 1005.6
20260505225623 2 259 9.7 14.5 0.00 0.00 0.00 74 1005.8
20260505224723 2 263 8.0 11.3 0.00 0.00 0.00 74 1005.7
20260505223824 2 259 6.4 9.7 0.00 0.00 0.00 76 1005.8
20260505222924 2 256 8.0 11.3 0.00 0.00 0.00 76 1005.6
20260505222024 2 241 3.2 6.4 0.00 0.00 0.00 77 1005.8
20260505221124 2 239 3.2 6.4 0.00 0.00 0.00 76 1005.6
20260505220437 2 226 3.2 6.4 0.00 0.00 0.00 75 1005.5
20260505215323 2 219 3.2 6.4 0.00 0.00 0.00 74 1005.6
20260505214423 2 224 3.2 6.4 0.00 0.00 0.00 73 1005.6
20260505213524 2 221 3.2 6.4 0.00 0.00 0.00 73 1005.1
20260505212836 2 227 3.2 6.4 0.00 0.00 0.00 72 1005.2
20260505211934 2 245 4.8 6.4 0.00 0.00 0.00 71 1005.2
20260505210824 3 220 4.8 6.4 0.00 0.00 0.00 71 1005.3
20260505205924 3 236 4.8 6.4 0.00 0.00 0.00 70 1005.3
20260505205024 3 238 4.8 6.4 0.00 0.00 0.00 69 1005.2
20260505204123 3 247 4.8 9.7 0.00 0.00 0.00 69 1005.2
20260505203224 3 232 6.4 11.3 0.00 0.00 0.00 67 1005.2
20260505202323 3 217 4.8 6.4 0.00 0.00 0.00 67 1005.1
20260505201424 3 239 4.8 6.4 0.00 0.00 0.00 65 1004.9
20260505200524 3 226 1.6 3.2 0.00 0.00 0.00 63 1005.1
20260505195624 3 226 1.6 6.4 0.00 0.00 0.00 61 1004.8
20260505194723 4 225 1.6 6.4 0.00 0.00 0.00 60 1004.8
20260505193823 4 242 3.2 6.4 0.00 0.00 0.00 59 1005.1
20260505192924 5 255 4.8 9.7 0.00 0.00 0.00 57 1005.0
20260505192024 5 254 8.0 17.7 0.00 0.00 0.00 55 1004.9
20260505191124 5 265 11.3 17.7 0.00 0.00 0.00 54 1004.8
20260505190224 5 242 6.4 11.3 0.00 0.00 0.00 54 1004.8
20260505185324 6 260 8.0 11.3 0.00 0.00 0.00 52 1004.7
20260505184424 6 258 8.0 11.3 0.00 0.03 0.00 51 1004.6
20260505183523 6 247 8.0 12.9 0.00 0.05 0.00 50 1004.7
20260505182624 6 255 9.7 12.9 0.00 0.05 0.00 49 1004.7
20260505181724 7 275 9.7 12.9 0.00 0.05 0.00 47 1004.6
20260505180824 7 276 8.0 12.9 0.00 0.05 0.00 47 1004.7
20260505175923 7 275 9.7 12.9 0.00 0.05 0.00 46 1004.6
20260505175238 7 272 16.1 22.5 0.00 0.05 0.00 45 1004.4
20260505174124 7 274 11.3 20.9 0.00 0.05 0.00 45 1004.2
20260505173224 7 282 17.7 24.1 0.00 0.05 0.00 44 1004.2
20260505172323 8 288 17.7 24.1 0.00 0.05 0.00 43 1004.0
20260505171424 8 273 12.9 20.9 0.00 0.05 0.00 42 1004.2
20260505170524 8 289 14.5 20.9 0.00 0.05 0.00 40 1004.0
20260505165624 8 257 14.5 20.9 0.00 0.05 0.00 40 1004.0
20260505164934 8 277 16.1 20.9 0.00 0.05 0.00 41 1003.9
20260505163823 8 273 17.7 33.8 0.00 0.05 0.00 39 1003.9
20260505162923 9 283 14.5 20.9 0.00 0.05 0.00 39 1003.9
20260505162236 8 282 16.1 22.5 0.00 0.05 0.00 40 1003.9
20260505161123 8 277 17.7 25.7 0.00 0.05 0.00 38 1003.9
20260505160223 9 290 20.9 35.4 0.00 0.05 0.00 37 1003.7
20260505152624 8 292 20.9 25.7 0.00 0.05 0.00 36 1003.4
20260505151724 9 291 20.9 25.7 0.00 0.05 0.00 35 1003.7
20260505150824 9 294 19.3 25.7 0.00 0.05 0.00 35 1003.6
20260505140524 9 307 20.9 25.7 0.00 0.05 0.00 37 1002.8
20260505130223 8 311 20.9 29.0 0.00 0.05 0.00 40 1002.6
20260505124424 9 293 20.9 27.4 0.00 0.05 0.00 40 1002.5
20260505123524 8 299 22.5 29.0 0.00 0.05 0.00 40 1002.6
20260505122623 8 290 17.7 22.5 0.00 0.05 0.00 41 1002.3
20260505121724 8 303 19.3 22.5 0.00 0.05 0.00 41 1002.4
20260505120823 8 329 20.9 33.8 0.00 0.05 0.00 41 1002.3
20260505115924 8 292 20.9 27.4 0.00 0.05 0.00 40 1002.1
20260505115024 9 296 20.9 27.4 0.00 0.05 0.00 41 1002.0
20260505114124 8 289 20.9 27.4 0.00 0.05 0.00 41 1001.8
20260505113224 8 296 24.1 32.2 0.00 0.05 0.00 39 1001.9
20260505112324 8 295 25.7 37.0 0.00 0.05 0.00 38 1001.7
20260505111636 8 288 25.7 35.4 0.00 0.05 0.00 38 1001.7
20260505110524 7 290 24.1 35.4 0.00 0.05 0.00 39 1001.5
20260505101124 7 276 20.9 27.4 0.00 0.05 0.00 42 1000.8
20260505100224 7 285 24.1 33.8 0.00 0.05 0.00 44 1001.0
20260505095324 7 297 27.4 35.4 0.00 0.05 0.00 45 1000.7
20260505094424 7 292 20.9 32.2 0.00 0.05 0.00 46 1000.5
20260505093523 6 299 22.5 37.0 0.00 0.05 0.00 49 1000.7
20260505092623 7 282 17.7 25.7 0.00 0.05 0.00 49 1000.4
20260505091724 7 284 20.9 32.2 0.00 0.05 0.00 50 1000.5
20260505090824 6 297 20.9 29.0 0.00 0.05 0.00 52 1000.3
20260505085924 6 289 19.3 24.1 0.00 0.05 0.00 56 1000.6
20260505085023 7 302 25.7 37.0 0.00 0.05 0.00 52 1000.4
20260505084124 6 291 19.3 33.8 0.00 0.05 0.00 58 1000.2
20260505083433 7 288 17.7 22.5 0.00 0.05 0.00 57 1000.0
20260505082323 6 275 16.1 24.1 0.00 0.05 0.00 59 1000.2
20260505081423 6 284 17.7 25.7 0.00 0.05 0.00 62 999.9
20260505080523 6 304 19.3 24.1 0.00 0.05 0.00 62 999.7
20260505075624 6 288 19.3 25.7 0.00 0.05 0.00 60 999.6
20260505074935 6 279 20.9 25.7 0.00 0.05 0.00 61 999.8
20260505073823 6 272 19.3 27.4 0.00 0.05 0.00 62 999.6
20260505072923 5 268 14.5 27.4 0.00 0.05 0.00 66 999.5
20260505072024 6 297 19.3 27.4 0.00 0.05 0.00 68 999.4
20260505071123 5 284 17.7 22.5 0.00 0.05 0.00 68 999.3